This demonstration page uses our WeatherBlox Daily Observations layout. Learn more.

Left ArrowRight Arrow

40.92945, -100.16068

Hourly Observations for February 8, 2022

Temp ( °F °C ) Dew Point ( °F °C ) Humidity (%) Winds ( mph kmh ) Pressure ( in mb ) Visibility ( mi km ) Precip ( " mm )
12:15 am 00:15 Clear 29 -1.4 17 -8.5 59 59 WSW 5 7 30.10 1019 10 16 0.00 0.00
12:35 am 00:35 Clear 32 -0.1 17 -8.1 55 55 WNW 5 7 30.09 1019 10 16 0.00 0.00
12:55 am 00:55 Clear 30 -1.2 17 -8.6 58 58 WNW 5 7 30.10 1019 10 16 0.00 0.00
1:15 am 01:15 Clear 32 -0.1 18 -7.8 57 57 W 6 9 30.08 1019 10 16 0.00 0.00
1:35 am 01:35 Clear 32 -0.2 17 -8.5 54 54 W 7 11 30.07 1018 10 16 0.00 0.00
1:55 am 01:55 Clear 32 -0.1 17 -8.5 54 54 W 8 13 30.06 1018 10 16 0.00 0.00
2:15 am 02:15 Clear 32 0 18 -8 55 55 W 9 15 30.05 1017 10 16 0.00 0.00
2:35 am 02:35 Clear 32 0 19 -7.5 57 57 W 10 17 30.05 1017 10 16 0.00 0.00
2:55 am 02:55 Clear 32 0 19 -7.3 58 58 W 7 11 30.03 1017 10 16 0.00 0.00
3:15 am 03:15 Clear 31 -0.4 18 -7.7 58 58 W 7 11 30.03 1017 10 16 0.00 0.00
3:35 am 03:35 Clear 31 -0.5 19 -7.4 60 60 W 10 17 30.02 1017 10 16 0.00 0.00
3:55 am 03:55 Clear 28 -2.1 17 -8.1 64 64 W 8 13 30.02 1017 10 16 0.00 0.00
4:15 am 04:15 Clear 28 -2.3 18 -8 65 65 WNW 8 13 30.01 1016 10 16 0.00 0.00
4:35 am 04:35 Clear 26 -3.4 17 -8.3 69 69 NW 8 13 30.03 1017 10 16 0.00 0.00
4:55 am 04:55 Clear 25 -3.7 17 -8.6 69 69 NW 8 13 30.03 1017 10 16 0.00 0.00
5:15 am 05:15 Clear 23 -5 15 -9.2 73 73 NW 8 13 30.06 1018 10 16 0.00 0.00
5:35 am 05:35 Clear 21 -6.2 15 -9.6 77 77 WNW 8 13 30.06 1018 10 16 0.00 0.00
5:55 am 05:55 Clear 22 -5.8 16 -9 78 78 WNW 7 11 30.08 1018 10 16 0.00 0.00
6:15 am 06:15 Clear 24 -4.7 18 -8 78 78 WNW 10 17 30.07 1018 10 16 0.00 0.00
6:35 am 06:35 Clear 28 -2.2 20 -6.9 71 71 WNW 15 24 30.05 1018 10 16 0.00 0.00
6:55 am 06:55 Clear 28 -2.1 19 -7 69 69 WNW 12 19 30.07 1018 10 16 0.00 0.00
7:15 am 07:15 Clear 28 -2.5 19 -7 72 72 WNW 10 17 30.07 1018 10 16 0.00 0.00
7:35 am 07:35 Clear 27 -2.8 19 -7.1 73 73 WNW 10 17 30.09 1019 10 16 0.00 0.00
7:55 am 07:55 Sunny 27 -3 19 -7.5 71 71 WNW 8 13 30.10 1019 10 16 0.00 0.00
8:15 am 08:15 Sunny 28 -2.1 19 -7.2 68 68 WNW 9 15 30.10 1019 10 16 0.00 0.00
8:35 am 08:35 Sunny 37 2.6 20 -6.5 52 52 WNW 10 17 30.06 1018 10 16 0.00 0.00
8:55 am 08:55 Sunny 38 3.2 21 -6 51 51 WNW 8 13 30.07 1018 10 16 0.00 0.00
9:15 am 09:15 Sunny 47 8.5 19 -7.1 33 33 NNW 16 26 30.03 1017 10 16 0.00 0.00
9:35 am 09:35 Sunny 49 9.7 18 -7.6 29 29 NNW 17 28 30.02 1017 10 16 0.00 0.00
9:55 am 09:55 Sunny 52 10.9 17 -8.4 25 25 N 23 37 30.03 1017 10 16 0.00 0.00
10:15 am 10:15 Sunny 53 11.7 17 -8.6 23 23 NNW 24 39 30.03 1017 10 16 0.00 0.00
10:35 am 10:35 Sunny 54 12.4 17 -8.6 22 22 N 30 48 30.03 1017 10 16 0.00 0.00
10:55 am 10:55 Sunny 54 12.1 16 -8.8 23 23 N 24 39 30.03 1017 10 16 0.00 0.00
11:15 am 11:15 Partly Cloudy 51 10.8 17 -8.3 26 26 NNW 26 43 30.05 1018 10 16 0.00 0.00
11:35 am 11:35 Cloudy 51 10.6 19 -7.5 28 28 NNW 22 35 30.07 1018 10 16 0.00 0.00
11:55 am 11:55 Cloudy 52 11.2 19 -7.5 26 26 NNW 22 35 30.07 1018 10 16 0.00 0.00
12:15 pm 12:15 Partly Cloudy 53 11.6 17 -8.6 24 24 NNW 25 41 30.07 1018 10 16 0.00 0.00
12:35 pm 12:35 Sunny 54 12.1 15 -9.3 22 22 NNW 26 43 30.06 1018 10 16 0.00 0.00
12:55 pm 12:55 Sunny 55 13 15 -9.6 20 20 NNW 24 39 30.04 1017 10 16 0.00 0.00
1:15 pm 13:15 Sunny 56 13.4 12 -11.2 17 17 NNW 31 50 30.04 1017 10 16 0.00 0.00
1:35 pm 13:35 Sunny 57 14 13 -10.7 17 17 NW 26 43 30.02 1017 10 16 0.00 0.00
1:55 pm 13:55 Sunny 56 13.6 13 -10.6 18 18 NNW 30 48 30.03 1017 10 16 0.00 0.00
2:15 pm 14:15 Sunny 57 13.7 13 -10.5 18 18 NW 31 50 30.02 1017 10 16 0.00 0.00
2:35 pm 14:35 Sunny 57 13.9 12 -11 17 17 NNW 22 35 30.01 1016 10 16 0.00 0.00
2:55 pm 14:55 Sunny 57 13.7 12 -10.9 17 17 NW 24 39 30.01 1016 10 16 0.00 0.00
3:15 pm 15:15 Partly Cloudy 57 14.1 11 -11.5 16 16 NNW 23 37 29.99 1016 10 16 0.00 0.00
3:35 pm 15:35 Mostly Cloudy 58 14.2 12 -11.3 16 16 NW 25 41 30.00 1016 10 16 0.00 0.00
3:55 pm 15:55 Mostly Cloudy 56 13.6 11 -11.5 16 16 NNW 26 43 30.01 1016 10 16 0.00 0.00
4:15 pm 16:15 Partly Cloudy 56 13.2 11 -11.4 17 17 NW 26 43 30.02 1017 10 16 0.00 0.00
4:35 pm 16:35 Sunny 55 13 12 -11 18 18 NW 24 39 30.02 1017 10 16 0.00 0.00
4:55 pm 16:55 Partly Cloudy 55 12.6 12 -11 18 18 NNW 18 30 30.03 1017 10 16 0.00 0.00
5:15 pm 17:15 Partly Cloudy 54 12.2 12 -11.1 19 19 NW 17 28 30.03 1017 10 16 0.00 0.00
5:35 pm 17:35 Partly Cloudy 53 11.4 12 -11 20 20 NW 16 26 30.04 1017 10 16 0.00 0.00
5:55 pm 17:55 Partly Cloudy 49 9.6 12 -11.1 22 22 NNW 12 19 30.05 1018 10 16 0.00 0.00
6:15 pm 18:15 Clear 44 6.4 11 -11.6 27 27 NW 9 15 30.08 1019 10 16 0.00 0.00
6:35 pm 18:35 Clear 38 3.5 9 -12.6 30 30 WNW 7 11 30.12 1020 7 11 0.00 0.00
6:55 pm 18:55 Clear 37 2.8 11 -11.7 34 34 WNW 7 11 30.13 1020 10 16 0.00 0.00
7:15 pm 19:15 Clear 32 -0.1 9 -13 38 38 WNW 9 15 30.15 1021 10 16 0.00 0.00
7:35 pm 19:35 Clear 33 0.3 9 -12.7 37 37 WNW 8 13 30.15 1021 10 16 0.00 0.00
7:55 pm 19:55 Clear 29 -1.4 7 -13.7 39 39 W 6 9 30.16 1021 7 11 0.00 0.00
8:15 pm 20:15 Clear 31 -0.6 10 -12.3 41 41 W 8 13 30.15 1021 10 16 0.00 0.00
8:35 pm 20:35 Clear 28 -2 9 -13 43 43 W 8 13 30.17 1022 10 16 0.00 0.00
8:55 pm 20:55 Clear 28 -2.4 10 -12.5 46 46 W 6 9 30.17 1022 10 16 0.00 0.00
9:15 pm 21:15 Clear 28 -2 10 -12.5 45 45 W 7 11 30.17 1022 10 16 0.00 0.00
9:35 pm 21:35 Clear 27 -3 9 -12.8 47 47 W 10 17 30.18 1022 7 11 0.00 0.00
9:55 pm 21:55 Clear 27 -2.6 10 -12.2 48 48 W 8 13 30.17 1022 10 16 0.00 0.00
10:15 pm 22:15 Clear 25 -3.7 10 -12.5 51 51 W 8 13 30.18 1022 10 16 0.00 0.00
10:35 pm 22:35 Clear 25 -3.9 10 -12 54 54 W 10 17 30.18 1022 10 16 0.00 0.00
10:55 pm 22:55 Clear 29 -1.9 12 -11.3 49 49 W 10 17 30.16 1021 10 16 0.00 0.00
11:15 pm 23:15 Clear 26 -3.4 11 -11.8 53 53 W 9 15 30.17 1022 10 16 0.00 0.00
11:35 pm 23:35 Partly Cloudy 25 -3.7 11 -11.6 55 55 WNW 7 11 30.17 1022 10 16 0.00 0.00
11:55 pm 23:55 Partly Cloudy 26 -3.2 11 -11.4 54 54 NNW 7 11 30.17 1022 10 16 0.00 0.00

Powered by AerisWeather